This demonstration page uses our WeatherBlox Daily Observations layout. Learn more.

Left ArrowRight Arrow

Hourly Observations for September 17, 2019

Temp ( °F °C ) Dew Point ( °F °C ) Humidity (%) Winds ( mph kmh ) Pressure ( in mb ) Visibility ( mi km ) Precip ( " mm )
12:51 am 00:51 Clear 67 19.4 61 16.1 81 81 Calm 29.90 1013 10 16 0.00 0.00
1:51 am 01:51 Clear 68 20 59 15 73 73 SW 6 9 29.88 1012 10 16 0.00 0.00
2:51 am 02:51 Clear 65 18.3 59 15 81 81 NNE 6 9 29.88 1012 10 16 0.00 0.00
3:51 am 03:51 Clear 64 17.8 59 15 84 84 WSW 5 7 29.90 1013 10 16 0.00 0.00
4:51 am 04:51 Clear 61 16.1 58 14.4 90 90 ESE 3 6 29.90 1013 10 16 0.00 0.00
5:51 am 05:51 Clear 60 15.6 58 14.4 93 93 NW 5 7 29.93 1013 10 16 0.00 0.00
6:51 am 06:51 Sunny 64 17.8 60 15.6 87 87 Calm 29.96 1015 10 16 0.00 0.00
7:51 am 07:51 Sunny 69 20.6 60 15.6 73 73 Calm 29.96 1015 10 16 0.00 0.00
8:51 am 08:51 Sunny 73 22.8 59 15 62 62 Calm 29.96 1015 10 16 0.00 0.00
9:51 am 09:51 Sunny 77 25 59 15 54 54 VRB 3 6 29.96 1014 10 16 0.00 0.00
10:51 am 10:51 Sunny 80 26.7 54 12.2 41 41 VRB 3 6 29.93 1014 10 16 0.00 0.00
11:51 am 11:51 Sunny 83 28.3 54 12.2 37 37 Calm 29.91 1013 10 16 0.00 0.00
12:51 pm 12:51 Sunny 87 30.6 53 11.7 31 31 W 7 11 29.87 1012 10 16 0.00 0.00
1:51 pm 13:51 Sunny 90 32.2 53 11.7 28 28 WNW 14 22 29.83 1010 10 16 0.00 0.00
2:51 pm 14:51 Sunny 92 33.3 49 9.4 23 23 WNW 14 22 29.81 1009 10 16 0.00 0.00
3:51 pm 15:51 Sunny 92 33.3 48 8.9 22 22 WNW 13 20 29.80 1009 10 16 0.00 0.00
4:51 pm 16:51 Sunny 92 33.3 49 9.4 23 23 WNW 13 20 29.79 1009 10 16 0.00 0.00
5:51 pm 17:51 Sunny 90 32.2 49 9.4 24 24 NW 12 19 29.80 1009 10 16 0.00 0.00
6:51 pm 18:51 Clear 85 29.4 49 9.4 29 29 NNW 8 13 29.80 1009 10 16 0.00 0.00
7:51 pm 19:51 Clear 81 27.2 50 10 34 34 N 6 9 29.82 1010 10 16 0.00 0.00
8:51 pm 20:51 Clear 76 24.4 51 10.6 42 42 NW 6 9 29.83 1010 10 16 0.00 0.00
9:51 pm 21:51 Clear 76 24.4 50 10 40 40 NW 7 11 29.83 1010 10 16 0.00 0.00
10:51 pm 22:51 Clear 74 23.3 50 10 43 43 NNW 3 6 29.84 1010 10 16 0.00 0.00
11:51 pm 23:51 Clear 71 21.7 55 12.8 57 57 SSE 5 7 29.84 1010 10 16 0.00 0.00

Powered by AerisWeather